Theta_e
343 342 339 335 335 336 339 341 342 342 340 338 337 336 335 337 337 335 334 332 327 324 317 310 307 306 306 313 316 325 328 328
344 342 340 338 336 337 337 340 341 341 340 338 337 336 337 335 335 334 333 330 326 320 311 306 305 304 304 308 315 328 327 326
345 344 343 340 340 338 338 338 339 340 339 337 337 337 336 335 334 332 332 328 324 314 307 304 303 304 304 316 318 326 325 323
346 346 344 341 341 341 340 339 339 338 338 337 337 337 335 335 333 332 330 326 321 311 305 303 303 304 307 315 320 323 322 320
346 345 343 341 340 340 339 339 338 338 337 337 337 335 334 334 333 330 327 324 318 309 304 304 304 308 315 314 323 321 320 319
346 345 343 342 338 339 337 337 337 336 336 335 335 334 334 333 331 328 326 323 316 308 303 306 305 313 314 320 322 321 319 317
346 344 342 342 339 338 339 339 337 337 337 336 335 334 334 333 331 328 325 322 315 310 306 312 312 309 313 318 322 320 318 316
344 343 341 341 341 339 340 340 339 337 337 336 336 334 335 332 329 327 324 322 315 312 305 313 313 313 313 316 321 319 317 315
342 343 342 341 341 341 342 342 341 339 339 337 336 334 333 331 329 326 325 321 316 314 309 313 312 312 314 319 318 317 315 314
338 343 343 341 340 341 342 342 342 340 339 338 336 335 334 335 328 326 324 320 316 315 312 313 312 313 317 318 317 316 315 314
338 344 343 342 340 341 343 344 343 341 340 338 337 336 334 334 331 327 325 320 317 315 313 312 313 315 316 315 314 313 311 311
324 335 344 343 342 341 341 343 343 342 341 339 338 337 335 333 332 327 324 320 318 315 313 312 313 315 314 312 312 311 310 309
322 322 324 331 340 341 340 339 339 340 340 339 337 337 336 334 331 329 324 320 317 314 313 312 314 313 311 308 308 309 308 309
320 320 320 320 321 323 334 338 337 337 336 336 336 335 335 332 330 327 324 319 314 314 312 313 313 310 309 306 304 305 307 306
319 318 318 318 320 320 322 330 333 334 333 333 334 335 334 333 331 327 322 318 314 313 312 312 312 308 307 306 303 304 305 306
317 317 316 314 318 316 317 319 322 325 327 329 331 332 331 329 328 328 323 317 315 313 312 312 312 308 306 306 305 305 305 305
315 315 315 315 315 314 314 315 317 317 316 316 319 324 325 328 328 327 321 318 316 313 312 311 312 309 306 306 306 305 304 305
312 313 313 313 314 314 313 313 314 315 316 315 314 317 319 321 322 323 322 318 315 314 311 311 311 309 307 307 307 305 304 304
312 313 312 312 312 314 315 315 315 315 314 315 315 314 316 318 318 320 319 318 316 314 312 311 312 309 307 306 307 305 304 304
309 311 312 312 312 312 312 313 313 310 312 312 313 312 312 314 316 318 318 318 316 314 312 311 311 309 308 307 307 305 305 304
Wind_Speed
21 19 20 22 20 19 18 19 20 20 21 20 19 18 18 18 15 13 15 12 10 9 8 8 7 8 11 15 10 15 20 21
20 21 20 24 24 22 20 19 21 22 22 21 21 19 18 16 15 16 15 14 11 10 9 8 8 9 12 16 10 21 22 22
19 19 17 22 25 23 22 20 20 20 21 22 22 22 21 19 18 17 16 16 13 11 9 9 9 11 16 18 12 22 22 21
21 20 16 17 23 23 23 22 21 22 24 25 25 23 21 20 20 19 19 17 15 13 10 11 13 16 21 14 9 21 22 20
26 23 21 19 25 23 22 25 25 23 25 25 25 23 21 22 22 22 20 20 18 15 14 15 18 23 20 7 23 24 22 20
32 27 24 23 27 25 27 28 28 29 30 29 29 25 23 25 23 24 24 23 21 18 19 19 20 23 14 16 23 22 21 21
35 32 29 26 28 30 30 32 34 33 34 33 32 29 28 29 29 28 27 25 23 21 23 23 21 21 17 19 21 22 22 23
31 33 30 30 30 32 33 33 33 36 37 37 34 32 29 31 31 30 29 27 27 24 26 21 20 24 25 17 22 25 24 26
31 34 33 32 32 33 32 33 32 33 35 38 36 34 33 30 32 31 29 27 28 25 26 24 23 22 21 22 26 25 26 27
11 29 31 31 32 33 35 33 33 32 35 39 40 39 36 34 35 33 31 28 28 29 28 30 27 27 23 28 28 27 26 25
21 17 22 27 28 28 30 29 30 33 35 39 42 42 43 41 37 38 34 34 35 36 34 32 29 29 25 25 26 25 22 22
32 17 8 12 15 18 22 26 27 31 34 38 42 44 45 44 38 41 39 40 41 41 37 32 32 30 26 23 23 23 20 22
27 25 23 13 9 13 20 26 29 29 32 35 39 43 42 47 42 44 43 42 46 47 42 38 33 35 29 21 18 20 21 25
19 20 20 18 17 19 15 20 22 32 34 34 37 40 43 48 43 44 44 44 42 47 44 34 32 41 24 18 3 6 19 24
14 15 18 20 15 16 16 12 14 18 22 28 35 42 47 51 51 46 46 48 48 49 46 43 35 40 42 14 4 5 13 23
10 9 11 19 18 16 14 9 11 14 20 28 35 43 44 47 48 52 49 46 43 49 49 50 40 41 41 28 16 19 6 6
7 7 6 5 13 25 17 15 14 17 23 22 22 31 36 47 53 52 42 45 46 46 49 48 48 45 43 38 25 23 19 11
10 11 11 12 15 17 20 15 18 21 24 26 24 25 32 38 41 47 49 47 48 48 49 53 50 48 45 43 27 20 19 19
9 10 14 18 18 12 16 23 28 28 31 29 29 28 28 34 41 45 43 45 49 46 48 50 52 48 48 44 32 29 29 26
15 14 13 15 18 23 21 19 23 35 37 37 32 29 34 34 37 44 48 50 50 53 49 54 50 45 46 45 36 34 34 30
Wind_Direction
172 179 196 202 199 196 196 192 191 191 192 191 192 190 185 184 185 187 181 192 198 192 181 176 177 174 162 154 95 139 134 126
174 181 192 201 203 200 199 198 197 194 194 194 192 191 186 194 189 188 195 201 210 199 191 183 179 176 161 156 118 143 132 127
173 179 195 205 204 200 202 203 202 200 196 199 195 193 196 197 202 198 207 205 212 205 197 181 174 167 158 149 113 148 138 128
185 185 190 207 202 203 205 206 206 205 202 200 200 198 204 204 208 210 209 209 209 205 193 175 166 160 153 157 148 150 136 131
190 191 192 195 192 201 203 209 212 216 219 208 208 205 211 212 212 210 209 207 206 199 180 172 162 157 155 157 153 145 138 132
195 204 201 195 197 199 203 208 213 215 216 216 214 215 211 214 216 214 211 211 208 198 184 168 163 160 159 163 161 154 148 142
199 200 203 199 196 200 206 209 213 216 217 215 212 212 209 213 210 213 213 215 211 202 183 174 177 179 173 175 166 161 155 147
204 200 199 199 200 202 208 215 218 216 218 221 218 216 212 213 211 212 217 217 212 202 194 192 183 178 177 181 173 166 161 158
203 205 200 199 203 204 207 212 214 217 220 220 217 217 217 214 215 213 219 220 214 208 198 190 187 178 175 171 171 168 166 166
181 205 204 203 206 207 210 213 216 220 223 223 220 217 220 217 210 215 213 213 208 207 200 191 191 178 166 168 169 167 165 171
64 193 208 211 212 214 215 215 218 218 219 221 226 222 220 218 215 213 212 207 204 200 196 195 183 180 167 154 164 167 167 170
63 55 218 218 227 235 234 227 223 225 225 219 225 227 223 219 217 215 210 206 202 196 193 190 185 178 168 157 154 160 167 174
51 58 56 32 286 257 248 245 245 238 232 229 222 225 231 223 217 214 210 203 200 197 188 184 181 173 156 146 155 172 173 177
29 28 32 31 24 2 304 265 253 246 250 243 234 228 232 221 219 215 211 202 200 194 182 179 178 172 165 135 150 179 188 172
54 18 360 3 8 14 10 325 299 263 252 246 241 240 231 225 222 218 211 208 198 196 189 184 181 181 172 158 160 190 159 188
44 19 335 332 337 1 4 357 327 312 295 273 253 243 244 229 224 223 214 210 204 197 195 190 188 183 183 194 188 147 165 166
17 339 318 279 308 315 331 327 317 314 313 314 301 276 250 240 233 228 221 213 212 207 198 198 192 189 188 194 191 172 168 162
32 40 20 357 310 290 306 311 310 308 302 298 298 290 276 256 242 229 224 216 212 209 207 199 198 192 194 195 184 175 178 168
8 348 335 325 317 308 300 302 311 310 305 295 290 287 273 264 254 239 230 223 212 214 205 205 202 197 191 194 194 185 176 173
354 338 317 300 280 283 301 302 293 296 292 295 288 280 279 275 258 246 240 229 224 206 210 204 203 203 194 191 193 186 180 171